Flag for Paraguay Weather past 2 weeks in Asuncion, Paraguay

Now
63 °F

Clear.


Feels Like: 63 °F
Forecast: 60 / 84 °F
Wind: 5 mph from North

Location: Asuncion / Aeropuerto

Current Time: Aug 28, 2015 at 1:41:45 AM

Latest Report: Aug 28, 2015 at 12:00 AM


Visibility: 10 mi

Pressure: 30.09 "Hg

Humidity: 68%

Dew point: 52 °F

Location of AsuncionLocation

Historic Weather in Asuncion — Graph

°F

Asuncion temperature yesterday

Maximum temperature yesterday: 82 °F (at 1:00 PM)
Minimum temperature yesterday: 63 °F (at 6:00 AM)
Average temperature yesterday: 70 °F

Past Weeks' High & Low Weather Summary

 TemperatureHumidityPressure
High90 °F (Aug 26, 2:00 PM)100% (Aug 13, 7:30 AM)30.15 "Hg (Aug 13, 7:30 AM)
Low52 °F (Aug 21, 4:00 AM)35% (Aug 27, 3:00 PM)29.65 "Hg (Aug 22, 3:00 PM)
Average68 °F75%29.96 "Hg
* Reported Midnight between Aug 12 and Aug 13 — Midnight between Aug 27 and Aug 28, Asuncion, Weather by CustomWeather, © 2015

Note: Actual official high and low records may vary slightly from our data, if they occured in-between our weather recording intervals... More about our weather records

Advertising

Asuncion weather history for previous 24 hours

 ConditionsComfort  
Time TempWeatherWind HumidityBarometerVisibility
12:00 AM
Fri, Aug 28
63 °FClear.5 mph68%30.09 "Hg10 mi
11:00 PM
Thu, Aug 27
63 °FClear.5 mph68%30.09 "Hg10 mi
10:00 PM64 °FClear.5 mph64%30.09 "Hg10 mi
9:00 PM68 °FClear.7 mph56%30.09 "Hg10 mi
8:00 PM68 °FClear.7 mph56%30.09 "Hg10 mi
7:00 PM70 °FClear.6 mph53%30.07 "Hg10 mi
6:00 PM73 °FClear.5 mph41%30.04 "Hg10 mi
5:00 PM79 °FClear.9 mph37%30.01 "Hg10 mi
3:00 PM82 °FSunny.6 mph35%30.04 "Hg10 mi
2:00 PM82 °FSunny.3 mph37%30.04 "Hg10 mi
1:00 PM82 °FPassing clouds.8 mph42%30.04 "HgN/A
9:00 AM73 °FSunny.10 mph78%30.09 "Hg10 mi
8:30 AM72 °FSunny.10 mph83%30.09 "Hg10 mi
8:00 AM70 °FSunny.12 mph83%30.07 "Hg10 mi
7:30 AM70 °FSunny.14 mph83%30.04 "Hg10 mi
7:00 AM64 °FSunny.No wind94%30.01 "Hg10 mi
6:00 AM63 °FSunny.3 mph94%29.98 "Hg10 mi
5:00 AM64 °FClear.3 mph94%29.92 "Hg10 mi
4:00 AM70 °FClear.8 mph78%29.89 "Hg10 mi
3:00 AM68 °FPassing clouds.6 mph83%29.89 "HgN/A
2:00 AM66 °FClear.3 mph88%29.89 "Hg6 mi
1:00 AM68 °FClear.10 mph88%29.89 "Hg6 mi
Weather by CustomWeather, © 2015

See weather overviewHow to use our weather pages